Regional Weather Roundup
Issued by NWS Little Rock, AR

Home | Current Version | Previous Version | Text Only | Print | Product List | Glossary On
Versions: 1 2 3 4 5 6 7 8 9 10 11 12 13 14 15 16 17 18 19 20 21 22 23 24 25 26 27 28 29 30 31 32 33 34 35 36 37 38 39 40 41 42 43 44 45 46 47 48 49 50
969
ASUS44 KLZK 202205
RWRLZK

WEATHER ROUNDUP FOR ARKANSAS
NATIONAL WEATHER SERVICE LITTLE ROCK AR
500 PM CDT FRI OCT 20 2017

NOTE: "FAIR" INDICATES FEW OR NO CLOUDS BELOW 12,000 FEET WITH NO
SIGNIFICANT WEATHER AND/OR OBSTRUCTIONS TO VISIBILITY.

ARZ001-003-010-029-202300-
NORTHWEST ARKANSAS

CITY           SKY/WX    TMP DP  RH WIND       PRES   REMARKS
FAYETTEVILLE   MOSUNNY   72  60  66 S14       30.02F
FORT SMITH     SUNNY     75  61  61 SE10      30.01F
HARRISON       CLOUDY    67  59  75 S14       30.07F
BENTONVILLE    SUNNY     73  55  53 S13       30.03F
ROGERS         MOSUNNY   72  57  59 SE15      30.02F
SILOAM SPGS    SUNNY     73  58  59 SE14      30.00F
HIGHFILL       SUNNY     73  57  57 SE18      30.01F
SPRINGDALE     PTSUNNY   72  57  60 SE12G21   30.04F
$$

ARZ004-005-016-202300-
NORTH CENTRAL ARKANSAS

CITY           SKY/WX    TMP DP  RH WIND       PRES   REMARKS
BATESVILLE     CLOUDY    72  58  61 SE6       30.09F
FLIPPIN        CLOUDY    69  59  70 VRB6      30.07F
MTN HOME       CLOUDY    68  59  73 S7        30.06F
$$

ARZ040-041-202300-
WEST CENTRAL ARKANSAS

CITY           SKY/WX    TMP DP  RH WIND       PRES   REMARKS
MENA           CLOUDY    73  64  73 SE5       30.04F
MOUNT IDA      CLOUDY    73  57  57 VRB6      30.04S
$$

ARZ009-017-025-026-028-202300-
NORTHEAST ARKANSAS

CITY           SKY/WX    TMP DP  RH WIND       PRES   REMARKS
JONESBORO      CLOUDY    77  55  46 SE14      30.10F
WALNUT RIDGE   PTSUNNY   75  55  49 SE8       30.10F
BLYTHEVILLE    CLOUDY    75  53  46 SE7       30.13S
$$

ARZ022-023-033-042-044-202300-
CENTRAL ARKANSAS

CITY           SKY/WX    TMP DP  RH WIND       PRES   REMARKS
LITTLE ROCK    CLOUDY    73  60  63 S5        30.08F
N LITTLE ROCK    N/A     72  60  65 S5        30.10S
JACKSONVILLE   CLOUDY    74  60  60 E6        30.06F
SEARCY         CLOUDY    73  61  65 MISG      30.09F
HOT SPRINGS    CLOUDY    73  61  65 S6        30.08S
RUSSELLVILLE   CLOUDY    72  62  71 VRB3      30.06F
CLINTON        FAIR      70  61  73 S3        30.07F
$$

ARZ036-202300-
EAST ARKANSAS

CITY           SKY/WX    TMP DP  RH WIND       PRES   REMARKS
WEST MEMPHIS   CLOUDY    73  54  51 SE9       30.10F
$$

ARZ050-053-066-070-073-202300-
SOUTHWEST ARKANSAS

CITY           SKY/WX    TMP DP  RH WIND       PRES   REMARKS
ARKADELPHIA    FAIR      74  61  63 SE7       30.08R
CAMDEN         PTSUNNY   73  57  56 SE7       30.08S
TEXARKANA      CLOUDY    75  59  57 SE10      30.04F
EL DORADO      CLOUDY    73  61  65 E7        30.08F
DE QUEEN       MOSUNNY   78  62  57 E10       30.00F
$$

ARZ056-057-069-202300-
SOUTHEAST ARKANSAS

CITY           SKY/WX    TMP DP  RH WIND       PRES   REMARKS
PINE BLUFF     CLOUDY    74  58  57 SE7       30.07F
STUTTGART      CLOUDY    75  56  51 SE10      30.10S
MONTICELLO     CLOUDY    74  58  57 CALM      30.09S

$$






USA.gov is the U.S. government's official web portal to all federal, state and local government web resources and services.